Saturday, May 28, 2016
09:55 UTC
  |  Log In   |  Register Free
Airport Search:

Tracy Municipal Airport
(KTCY)

Tracy Municipal Airport Diagram
No Airport Diagram Available

FAA data valid effective Mar 31 2016 - May 26 2016 (unless otherwise noted).

 
 
 
 
 
 
 
 
 
 
 
 
 
 
Summary: Tracy Municipal (TCY)

Weather Summary


METAR for KTCY is not available. Closest METAR is for KLVK 18.0 nm SE
KLVK  (18.0 nm SE)   (most recent observation was updated at 28:08 UTC)
280853Z AUTO 00000KT 10SM CLR 16/08 A2982 RMK AO2 SLP095 T01560083 56006

KMOD  (23.5 nm NW)   (most recent observation was updated at 28:08 UTC)
280853Z AUTO 35004KT 10SM CLR 21/10 A2978 RMK AO2 SLP082 T02060100 57006

TAF for KTCY is not available.
KSCK
280534Z 2806/2906 30009KT P6SM SKC

KLVK  (18.0 nm SE)   (most recent observation was updatred at 28:05 UTC)
280532Z 2806/2906 VRB02KT P6SM SKC FM281800 24005KT P6SM SKC FM282100 27010KT P6SM SKC FM290400 VRB03KT P6SM SKC


KSJC  (30.4 nm NE)   (most recent observation was updatred at 28:05 UTC)
280532Z 2806/2906 VRB04KT P6SM SKC FM281900 29010KT P6SM SKC FM282300 31013KT P6SM SKC FM290400 VRB05KT P6SM SKC
GlobalAir.com is loading additional information.
Current weather conditions are not available for TCY.

The nearest NOAA weather station is at SCK (13.7 nm NE from TCY)
 Current Weather at SCK
67.0 F° (19.4 C°)
Fair
West winds at 6.9 mph
Pressure:
29.78 in
Humidity:
53%
Wind:
West at 6.9 MPH (6 KT)
Dew Point:
48.9 F° (9.4 C°)
Visibility:
10.00 mi
TCY NOAA Radar

Runway Summary

ID Dimensions Surface Instrument Approaches
12/30 75 ft x 4001 ft Asphalt, Fair Condition RNAV (GPS) RWY 12
RNAV (GPS) RWY 12
RNAV (GPS) RWY 26
RNAV (GPS) RWY 30
VOR/DME RWY 26
08/26 75 ft x 3438 ft Asphalt, Fair Condition RNAV (GPS) RWY 12
RNAV (GPS) RWY 26
RNAV (GPS) RWY 30
VOR/DME RWY 26

Communications Summary


CTAF123.075
UNICOM123.075
ATISN/A
WX AWOS-3
NORCAL APPROACH123.85
NORCAL DEPARTURE123.85
CLEARANCE DELIVERYN/A

Terminal Procedures Summary


Approaches
More Approaches
Special Minimums

Closest Alternate Airports with Instrument Procedures

CA54 - 33 Strip - 5.5 nm SE from TCY

CA54 - 33 Strip - 5.5 nm SE from TCY

CA54 - 33 Strip - 5.5 nm SE from TCY

KC83 - Byron - 13.9 nm NW from TCY

KSCK - Stockton Metropolitan - 18 nm NE from TCY

KLVK - Livermore Municipal - 20.7 nm NW from TCY

CA17 - Peterson - 26.3 nm NE from TCY

KMOD - Modesto City-Co-Harry Sham Fld - 27.1 nm SE from TCY

12CA - Faber Vineyards - 28.4 nm NE from TCY

CL11 - Ferdun Ranch - 28.7 nm NE from TCY

Find All Airport Services Find A Hotel Find A Rental Car Find A Golf Course Find A Restaurant $100 Hamburger



FBO's on the Field
FBO Company Facility Photos Services Transportation Aviation Fuel Prices: Prices include tax
Catering Weather Repair Courtesy Rental Type 100LL JetA JetA+ MOGAS 8087
 
SkyView Aviation LLC

Currently rated 5 by 1 person
FS:Avfuel
Last Updated: May-13
Login to update fuel prices
SS:
Contact SkyView Aviation LLCMore FBO Information
 
Add another FBO Facility Photos Catering Weather Repair Courtesy Rental Type 100LL JetA JetA+ MOGAS 8087
Services Transportation Aviation Fuel Prices: Prices include tax


model-print
model-print
model-print
model-print